Tracking 35331 objects as of 15-Sep-2026
HD Live streaming from Space Station
objects crossing your sky now

USA 356

Track USA 356 now!
10-day predictions


NORAD ID: 59816
Int'l Code: 2024-096C
Launch date: May 22, 2024
Source: United States (US)
Launch site: AIR FORCE WESTERN TEST RANGE (AFWTR)
Your satellite tracking list
Your tracking list is empty




NASA's NSSDC Master Catalog

Two Line Element Set (TLE):
1 59816U 24096C   26239.83230449 0.00000000  00000-0  00000-0 0    08
2 59816  70.0168 131.9292 0004000  35.7647 324.2353 14.96713468    07
Source of the keplerian elements: MCCANTS